QPF
0.02 0.01 0.00 0.01 0.03 0.04 0.03 0.02 0.02 0.02 0.03 0.03 0.02 0.02 0.01 0.00 0.00 0.00 0.00 0.00 0.00 0.01 0.02 0.01 0.01 0.02 0.02 0.03 0.02 0.03 0.03 0.02 0.02 0.03 0.03 0.04 0.06 0.07 0.05 0.05 0.07 0.06 0.06
0.02 0.01 0.01 0.01 0.02 0.03 0.04 0.03 0.02 0.01 0.01 0.02 0.02 0.01 0.01 0.01 0.00 0.00 0.01 0.00 0.00 0.00 0.01 0.01 0.01 0.02 0.03 0.03 0.03 0.04 0.03 0.02 0.03 0.03 0.04 0.04 0.05 0.06 0.05 0.05 0.06 0.07 0.08
0.01 0.01 0.00 0.01 0.01 0.02 0.03 0.03 0.03 0.02 0.01 0.01 0.01 0.01 0.01 0.01 0.00 0.00 0.01 0.00 0.00 0.01 0.01 0.01 0.01 0.01 0.02 0.02 0.02 0.03 0.03 0.03 0.02 0.03 0.05 0.04 0.05 0.07 0.06 0.04 0.04 0.05 0.06
0.01 0.01 0.00 0.00 0.01 0.01 0.03 0.03 0.02 0.02 0.01 0.01 0.01 0.00 0.01 0.01 0.00 0.01 0.01 0.01 0.00 0.00 0.01 0.01 0.00 0.00 0.01 0.01 0.01 0.02 0.02 0.03 0.03 0.04 0.04 0.03 0.04 0.05 0.06 0.04 0.03 0.03 0.03
0.01 0.01 0.00 0.01 0.01 0.01 0.02 0.02 0.01 0.01 0.01 0.01 0.00 0.00 0.01 0.01 0.01 0.00 0.01 0.01 0.01 0.00 0.00 0.00 0.00 0.00 0.00 0.01 0.01 0.01 0.01 0.01 0.03 0.05 0.04 0.04 0.03 0.03 0.03 0.04 0.03 0.03 0.03
0.01 0.00 0.01 0.01 0.01 0.01 0.01 0.01 0.01 0.01 0.00 0.00 0.00 0.00 0.00 0.00 0.00 0.01 0.01 0.01 0.01 0.01 0.01 0.00 0.00 0.00 0.00 0.00 0.00 0.00 0.00 0.01 0.01 0.03 0.02 0.03 0.03 0.03 0.02 0.03 0.03 0.04 0.04
0.00 0.00 0.01 0.01 0.00 0.00 0.00 0.01 0.01 0.01 0.00 0.00 0.00 0.00 0.01 0.01 0.01 0.01 0.02 0.01 0.01 0.03 0.03 0.01 0.00 0.00 0.00 0.00 0.00 0.00 0.01 0.01 0.01 0.02 0.02 0.02 0.03 0.02 0.01 0.02 0.02 0.02 0.02
0.00 0.00 0.00 0.00 0.00 0.00 0.00 0.01 0.01 0.01 0.00 0.00 0.00 0.00 0.00 0.01 0.01 0.01 0.01 0.01 0.02 0.03 0.02 0.01 0.01 0.01 0.00 0.00 0.00 0.00 0.01 0.01 0.01 0.02 0.03 0.03 0.02 0.02 0.01 0.01 0.01 0.01 0.01
0.00 0.00 0.00 0.00 0.00 0.00 0.00 0.00 0.00 0.00 0.00 0.00 0.00 0.00 0.00 0.01 0.01 0.01 0.01 0.01 0.01 0.01 0.00 0.01 0.01 0.01 0.00 0.00 0.00 0.00 0.01 0.01 0.00 0.01 0.02 0.03 0.03 0.03 0.01 0.01 0.01 0.01 0.01
0.00 0.00 0.00 0.00 0.00 0.00 0.00 0.00 0.00 0.00 0.00 0.00 0.00 0.00 0.00 0.00 0.01 0.01 0.01 0.01 0.01 0.01 0.00 0.01 0.01 0.01 0.01 0.00 0.01 0.01 0.01 0.01 0.00 0.01 0.02 0.03 0.03 0.02 0.01 0.00 0.00 0.00 0.01
0.00 0.00 0.00 0.00 0.00 0.00 0.00 0.00 0.01 0.01 0.00 0.01 0.00 0.00 0.00 0.00 0.00 0.01 0.02 0.01 0.01 0.01 0.00 0.00 0.01 0.01 0.01 0.00 0.01 0.01 0.01 0.01 0.01 0.00 0.00 0.01 0.00 0.01 0.01 0.00 0.00 0.00 0.00
0.00 0.00 0.00 0.00 0.00 0.00 0.00 0.00 0.00 0.00 0.01 0.01 0.01 0.00 0.00 0.00 0.00 0.01 0.02 0.02 0.01 0.01 0.00 0.00 0.00 0.00 0.01 0.00 0.00 0.00 0.00 0.01 0.01 0.00 0.00 0.00 0.00 0.00 0.00 0.00 0.00 0.00 0.00
0.00 0.00 0.00 0.00 0.00 0.00 0.00 0.00 0.00 0.00 0.01 0.01 0.01 0.00 0.00 0.00 0.00 0.01 0.02 0.02 0.01 0.01 0.01 0.00 0.00 0.00 0.00 0.00 0.00 0.00 0.00 0.00 0.00 0.00 0.00 0.00 0.00 0.00 0.00 0.00 0.00 0.00 0.00
0.00 0.00 0.00 0.00 0.00 0.00 0.00 0.00 0.00 0.00 0.00 0.00 0.00 0.00 0.00 0.00 0.00 0.00 0.01 0.01 0.01 0.02 0.02 0.02 0.01 0.00 0.01 0.01 0.01 0.01 0.00 0.00 0.00 0.00 0.00 0.00 0.00 0.00 0.00 0.00 0.00 0.00 0.01
0.00 0.00 0.00 0.00 0.00 0.00 0.00 0.00 0.00 0.00 0.00 0.00 0.00 0.00 0.00 0.00 0.01 0.01 0.01 0.01 0.01 0.02 0.02 0.02 0.01 0.01 0.01 0.01 0.00 0.00 0.00 0.00 0.00 0.00 0.00 0.00 0.00 0.00 0.00 0.00 0.01 0.01 0.01
0.00 0.00 0.00 0.00 0.00 0.00 0.00 0.00 0.00 0.00 0.00 0.00 0.00 0.01 0.01 0.01 0.01 0.01 0.01 0.01 0.01 0.02 0.02 0.02 0.01 0.01 0.01 0.01 0.01 0.01 0.00 0.00 0.00 0.00 0.00 0.00 0.00 0.00 0.00 0.00 0.00 0.00 0.00
0.00 0.00 0.00 0.00 0.00 0.00 0.00 0.00 0.00 0.00 0.00 0.00 0.01 0.01 0.01 0.01 0.01 0.01 0.01 0.01 0.01 0.00 0.01 0.01 0.01 0.01 0.01 0.01 0.01 0.01 0.00 0.00 0.00 0.00 0.00 0.00 0.00 0.00 0.00 0.00 0.00 0.00 0.00
0.00 0.01 0.01 0.00 0.00 0.00 0.00 0.01 0.01 0.00 0.01 0.01 0.02 0.02 0.01 0.01 0.00 0.00 0.01 0.01 0.00 0.00 0.00 0.00 0.00 0.00 0.01 0.01 0.01 0.00 0.00 0.00 0.00 0.00 0.00 0.00 0.00 0.00 0.00 0.00 0.00 0.00 0.00
0.01 0.01 0.00 0.00 0.00 0.00 0.00 0.01 0.01 0.00 0.01 0.01 0.02 0.01 0.01 0.01 0.01 0.01 0.00 0.01 0.01 0.00 0.00 0.00 0.00 0.00 0.00 0.00 0.01 0.00 0.00 0.00 0.00 0.00 0.00 0.00 0.00 0.00 0.00 0.00 0.00 0.00 0.00
0.01 0.01 0.00 0.00 0.00 0.00 0.00 0.01 0.01 0.01 0.01 0.01 0.01 0.01 0.01 0.01 0.01 0.01 0.00 0.00 0.00 0.00 0.00 0.00 0.00 0.00 0.00 0.00 0.01 0.00 0.00 0.00 0.00 0.00 0.00 0.00 0.00 0.00 0.00 0.00 0.00 0.00 0.00
0.00 0.00 0.00 0.00 0.00 0.00 0.00 0.01 0.01 0.01 0.01 0.01 0.01 0.01 0.01 0.01 0.02 0.01 0.01 0.00 0.00 0.00 0.00 0.00 0.00 0.00 0.01 0.01 0.01 0.01 0.00 0.00 0.00 0.00 0.00 0.00 0.00 0.00 0.01 0.00 0.00 0.00 0.00
0.00 0.00 0.01 0.01 0.00 0.00 0.00 0.00 0.01 0.01 0.01 0.01 0.01 0.01 0.01 0.01 0.01 0.01 0.01 0.00 0.00 0.00 0.01 0.01 0.01 0.01 0.01 0.01 0.00 0.01 0.00 0.00 0.00 0.00 0.00 0.00 0.00 0.00 0.01 0.01 0.00 0.00 0.00
0.00 0.01 0.02 0.04 0.03 0.01 0.01 0.01 0.01 0.02 0.02 0.02 0.01 0.01 0.00 0.00 0.01 0.01 0.01 0.00 0.00 0.00 0.01 0.01 0.00 0.00 0.00 0.00 0.00 0.00 0.00 0.01 0.00 0.00 0.00 0.00 0.01 0.01 0.01 0.00 0.00 0.00 0.00
0.01 0.02 0.04 0.07 0.06 0.02 0.01 0.01 0.00 0.01 0.01 0.02 0.02 0.01 0.01 0.00 0.00 0.00 0.00 0.00 0.00 0.00 0.00 0.00 0.01 0.01 0.00 0.00 0.00 0.01 0.01 0.01 0.01 0.01 0.01 0.01 0.01 0.01 0.00 0.00 0.00 0.00 0.01
0.00 0.02 0.05 0.06 0.04 0.03 0.03 0.02 0.01 0.01 0.01 0.01 0.01 0.01 0.01 0.01 0.01 0.00 0.00 0.00 0.00 0.00 0.00 0.00 0.00 0.00 0.00 0.01 0.02 0.02 0.03 0.03 0.03 0.02 0.01 0.01 0.01 0.01 0.01 0.01 0.01 0.01 0.01
0.00 0.01 0.02 0.02 0.03 0.03 0.03 0.02 0.02 0.01 0.01 0.00 0.00 0.00 0.00 0.01 0.01 0.01 0.01 0.01 0.01 0.01 0.01 0.01 0.00 0.01 0.01 0.01 0.02 0.02 0.02 0.03 0.02 0.01 0.01 0.00 0.00 0.00 0.01 0.02 0.02 0.02 0.01
MSLP
1017.00 1017.13 1017.18 1017.17 1017.11 1017.05 1017.02 1017.05 1017.14 1017.30 1017.50 1017.72 1017.93 1018.10 1018.22 1018.28 1018.28 1018.24 1018.19 1018.14 1018.11 1018.12 1018.18 1018.30 1018.48 1018.71 1018.99 1019.32 1019.67 1020.04 1020.41 1020.77 1021.10 1021.40 1021.66 1021.88 1022.08 1022.25 1022.41 1022.56 1022.69 1022.80 1022.89
1017.00 1017.24 1017.39 1017.43 1017.41 1017.36 1017.32 1017.33 1017.41 1017.56 1017.76 1018.00 1018.23 1018.43 1018.57 1018.65 1018.66 1018.62 1018.56 1018.50 1018.47 1018.47 1018.53 1018.64 1018.81 1019.01 1019.26 1019.52 1019.81 1020.10 1020.39 1020.69 1020.97 1021.25 1021.51 1021.76 1022.00 1022.23 1022.46 1022.67 1022.87 1023.05 1023.19
1016.87 1017.21 1017.45 1017.57 1017.59 1017.56 1017.52 1017.51 1017.58 1017.72 1017.94 1018.20 1018.46 1018.70 1018.88 1018.98 1019.02 1019.00 1018.95 1018.91 1018.88 1018.89 1018.94 1019.05 1019.20 1019.37 1019.56 1019.76 1019.96 1020.16 1020.37 1020.58 1020.81 1021.05 1021.31 1021.57 1021.85 1022.14 1022.42 1022.70 1022.97 1023.22 1023.43
1016.58 1017.02 1017.35 1017.54 1017.61 1017.61 1017.58 1017.57 1017.64 1017.79 1018.03 1018.31 1018.62 1018.90 1019.14 1019.29 1019.37 1019.39 1019.37 1019.34 1019.33 1019.35 1019.41 1019.52 1019.64 1019.78 1019.92 1020.05 1020.17 1020.29 1020.41 1020.55 1020.72 1020.92 1021.16 1021.43 1021.72 1022.04 1022.37 1022.70 1023.02 1023.33 1023.60
1016.17 1016.70 1017.10 1017.36 1017.49 1017.52 1017.51 1017.52 1017.60 1017.78 1018.04 1018.36 1018.72 1019.06 1019.35 1019.56 1019.69 1019.75 1019.77 1019.77 1019.78 1019.83 1019.90 1020.00 1020.12 1020.24 1020.34 1020.43 1020.49 1020.54 1020.59 1020.67 1020.77 1020.93 1021.14 1021.39 1021.68 1022.01 1022.35 1022.70 1023.05 1023.38 1023.68
1015.68 1016.27 1016.75 1017.07 1017.25 1017.33 1017.36 1017.40 1017.50 1017.70 1018.00 1018.37 1018.77 1019.17 1019.51 1019.78 1019.97 1020.07 1020.13 1020.17 1020.21 1020.27 1020.36 1020.48 1020.60 1020.72 1020.81 1020.87 1020.90 1020.92 1020.93 1020.96 1021.02 1021.13 1021.29 1021.51 1021.77 1022.07 1022.38 1022.72 1023.05 1023.38 1023.70
1015.17 1015.81 1016.34 1016.72 1016.96 1017.09 1017.16 1017.23 1017.37 1017.61 1017.94 1018.35 1018.80 1019.24 1019.64 1019.96 1020.18 1020.33 1020.43 1020.50 1020.56 1020.65 1020.77 1020.91 1021.05 1021.19 1021.29 1021.36 1021.40 1021.41 1021.41 1021.41 1021.45 1021.52 1021.63 1021.79 1022.00 1022.23 1022.49 1022.77 1023.06 1023.36 1023.66
1014.69 1015.35 1015.92 1016.35 1016.64 1016.82 1016.94 1017.06 1017.24 1017.51 1017.88 1018.32 1018.81 1019.29 1019.72 1020.07 1020.34 1020.52 1020.64 1020.74 1020.83 1020.95 1021.10 1021.27 1021.45 1021.62 1021.77 1021.88 1021.95 1021.98 1021.99 1022.00 1022.01 1022.05 1022.12 1022.22 1022.34 1022.50 1022.68 1022.88 1023.10 1023.34 1023.61
1014.27 1014.93 1015.52 1015.99 1016.33 1016.56 1016.73 1016.90 1017.12 1017.43 1017.82 1018.29 1018.80 1019.31 1019.76 1020.14 1020.42 1020.63 1020.78 1020.90 1021.03 1021.18 1021.36 1021.57 1021.80 1022.02 1022.22 1022.39 1022.51 1022.58 1022.63 1022.64 1022.66 1022.67 1022.69 1022.73 1022.79 1022.86 1022.95 1023.06 1023.20 1023.37 1023.58
1013.90 1014.55 1015.14 1015.63 1016.01 1016.28 1016.50 1016.73 1016.99 1017.34 1017.77 1018.26 1018.78 1019.30 1019.76 1020.15 1020.46 1020.69 1020.87 1021.02 1021.18 1021.36 1021.59 1021.84 1022.12 1022.40 1022.66 1022.88 1023.05 1023.18 1023.26 1023.30 1023.32 1023.32 1023.31 1023.30 1023.29 1023.28 1023.29 1023.33 1023.39 1023.50 1023.65
1013.55 1014.17 1014.75 1015.25 1015.65 1015.97 1016.24 1016.51 1016.83 1017.22 1017.68 1018.19 1018.73 1019.26 1019.73 1020.14 1020.47 1020.73 1020.94 1021.13 1021.33 1021.56 1021.83 1022.13 1022.46 1022.78 1023.09 1023.36 1023.58 1023.75 1023.86 1023.92 1023.95 1023.94 1023.92 1023.87 1023.82 1023.77 1023.72 1023.70 1023.71 1023.76 1023.85
1013.20 1013.77 1014.31 1014.80 1015.21 1015.57 1015.89 1016.22 1016.60 1017.04 1017.54 1018.08 1018.64 1019.18 1019.68 1020.12 1020.47 1020.77 1021.03 1021.27 1021.53 1021.81 1022.12 1022.47 1022.83 1023.19 1023.53 1023.83 1024.07 1024.26 1024.39 1024.47 1024.51 1024.51 1024.48 1024.43 1024.36 1024.29 1024.22 1024.17 1024.15 1024.16 1024.21
1012.81 1013.30 1013.79 1014.24 1014.66 1015.04 1015.42 1015.82 1016.26 1016.76 1017.31 1017.90 1018.50 1019.08 1019.61 1020.08 1020.48 1020.84 1021.16 1021.46 1021.78 1022.12 1022.48 1022.86 1023.25 1023.63 1023.98 1024.28 1024.53 1024.73 1024.86 1024.95 1024.99 1025.00 1024.98 1024.94 1024.89 1024.83 1024.77 1024.72 1024.68 1024.68 1024.69
1012.35 1012.74 1013.15 1013.56 1013.97 1014.38 1014.81 1015.28 1015.81 1016.38 1017.01 1017.65 1018.30 1018.93 1019.51 1020.04 1020.50 1020.92 1021.31 1021.70 1022.08 1022.48 1022.89 1023.30 1023.71 1024.09 1024.42 1024.71 1024.95 1025.12 1025.25 1025.33 1025.39 1025.41 1025.42 1025.41 1025.39 1025.36 1025.33 1025.30 1025.27 1025.26 1025.25
1011.83 1012.10 1012.42 1012.77 1013.17 1013.60 1014.09 1014.63 1015.24 1015.91 1016.62 1017.34 1018.06 1018.75 1019.39 1019.98 1020.52 1021.01 1021.48 1021.94 1022.39 1022.84 1023.29 1023.73 1024.14 1024.51 1024.82 1025.09 1025.29 1025.44 1025.56 1025.64 1025.70 1025.75 1025.79 1025.82 1025.84 1025.86 1025.87 1025.86 1025.85 1025.83 1025.80
1011.28 1011.41 1011.62 1011.91 1012.28 1012.73 1013.27 1013.90 1014.61 1015.37 1016.17 1016.98 1017.78 1018.54 1019.25 1019.91 1020.52 1021.08 1021.63 1022.15 1022.66 1023.16 1023.64 1024.09 1024.50 1024.85 1025.14 1025.37 1025.55 1025.68 1025.78 1025.86 1025.94 1026.02 1026.10 1026.17 1026.25 1026.30 1026.35 1026.37 1026.36 1026.33 1026.28
1010.74 1010.72 1010.82 1011.03 1011.37 1011.84 1012.44 1013.14 1013.94 1014.81 1015.70 1016.60 1017.48 1018.31 1019.09 1019.81 1020.49 1021.12 1021.72 1022.29 1022.85 1023.38 1023.88 1024.33 1024.73 1025.07 1025.34 1025.54 1025.70 1025.83 1025.93 1026.03 1026.13 1026.24 1026.36 1026.48 1026.59 1026.68 1026.74 1026.77 1026.76 1026.71 1026.62
1010.26 1010.09 1010.07 1010.21 1010.52 1011.00 1011.64 1012.42 1013.30 1014.26 1015.25 1016.24 1017.19 1018.09 1018.93 1019.71 1020.43 1021.10 1021.74 1022.35 1022.93 1023.48 1023.98 1024.43 1024.82 1025.15 1025.41 1025.61 1025.77 1025.90 1026.02 1026.14 1026.28 1026.43 1026.58 1026.74 1026.87 1026.98 1027.04 1027.06 1027.02 1026.94 1026.81
1009.86 1009.55 1009.42 1009.49 1009.77 1010.25 1010.93 1011.77 1012.74 1013.78 1014.85 1015.91 1016.93 1017.89 1018.78 1019.59 1020.34 1021.04 1021.70 1022.32 1022.91 1023.46 1023.96 1024.41 1024.79 1025.11 1025.37 1025.58 1025.76 1025.92 1026.07 1026.24 1026.41 1026.60 1026.78 1026.96 1027.10 1027.20 1027.25 1027.23 1027.16 1027.02 1026.84
1009.55 1009.13 1008.90 1008.91 1009.15 1009.64 1010.35 1011.24 1012.27 1013.37 1014.51 1015.64 1016.71 1017.72 1018.64 1019.48 1020.25 1020.96 1021.62 1022.24 1022.83 1023.37 1023.86 1024.30 1024.68 1025.01 1025.28 1025.52 1025.73 1025.92 1026.12 1026.33 1026.54 1026.76 1026.96 1027.14 1027.28 1027.36 1027.37 1027.31 1027.18 1027.00 1026.77
1009.32 1008.80 1008.50 1008.45 1008.68 1009.16 1009.89 1010.81 1011.89 1013.05 1014.24 1015.41 1016.53 1017.57 1018.52 1019.38 1020.17 1020.88 1021.54 1022.15 1022.72 1023.25 1023.73 1024.16 1024.55 1024.89 1025.19 1025.45 1025.70 1025.94 1026.18 1026.43 1026.67 1026.91 1027.12 1027.29 1027.40 1027.45 1027.42 1027.31 1027.13 1026.90 1026.63
1009.13 1008.55 1008.20 1008.11 1008.32 1008.80 1009.53 1010.48 1011.58 1012.78 1014.01 1015.22 1016.37 1017.44 1018.41 1019.29 1020.09 1020.80 1021.46 1022.06 1022.62 1023.14 1023.62 1024.05 1024.45 1024.80 1025.13 1025.43 1025.71 1025.99 1026.26 1026.53 1026.79 1027.02 1027.22 1027.37 1027.45 1027.46 1027.38 1027.24 1027.02 1026.76 1026.47
1008.94 1008.33 1007.95 1007.85 1008.04 1008.52 1009.25 1010.21 1011.32 1012.54 1013.79 1015.02 1016.20 1017.29 1018.29 1019.19 1020.00 1020.72 1021.38 1021.99 1022.55 1023.07 1023.55 1023.99 1024.39 1024.77 1025.11 1025.44 1025.75 1026.04 1026.33 1026.61 1026.86 1027.08 1027.25 1027.37 1027.41 1027.38 1027.27 1027.10 1026.87 1026.60 1026.31
1008.70 1008.09 1007.72 1007.62 1007.81 1008.28 1009.01 1009.97 1011.08 1012.30 1013.55 1014.80 1015.99 1017.10 1018.12 1019.04 1019.87 1020.61 1021.29 1021.91 1022.48 1023.01 1023.50 1023.95 1024.38 1024.77 1025.13 1025.47 1025.79 1026.09 1026.37 1026.63 1026.86 1027.05 1027.19 1027.26 1027.27 1027.21 1027.09 1026.90 1026.68 1026.43 1026.17
1008.41 1007.83 1007.48 1007.39 1007.59 1008.06 1008.79 1009.73 1010.83 1012.03 1013.28 1014.52 1015.72 1016.84 1017.88 1018.82 1019.67 1020.44 1021.14 1021.78 1022.38 1022.93 1023.44 1023.91 1024.35 1024.75 1025.13 1025.48 1025.79 1026.09 1026.35 1026.58 1026.77 1026.92 1027.01 1027.05 1027.03 1026.96 1026.83 1026.67 1026.48 1026.27 1026.06
1008.05 1007.53 1007.22 1007.17 1007.38 1007.85 1008.57 1009.48 1010.56 1011.74 1012.96 1014.18 1015.37 1016.49 1017.53 1018.49 1019.36 1020.16 1020.89 1021.56 1022.18 1022.76 1023.30 1023.80 1024.26 1024.68 1025.06 1025.41 1025.72 1025.99 1026.23 1026.43 1026.58 1026.69 1026.75 1026.76 1026.73 1026.65 1026.55 1026.42 1026.28 1026.13 1025.99
Thickness
5725 5724 5722 5719 5717 5715 5713 5711 5708 5707 5705 5704 5704 5703 5702 5703 5703 5702 5702 5702 5703 5703 5703 5703 5702 5701 5700 5699 5700 5699 5698 5698 5699 5697 5695 5695 5696 5695 5694 5694 5695 5694 5693
5723 5720 5719 5717 5716 5713 5711 5709 5707 5705 5704 5702 5703 5702 5701 5701 5701 5699 5699 5700 5700 5700 5701 5701 5699 5698 5696 5696 5696 5695 5695 5695 5696 5696 5693 5690 5690 5689 5691 5690 5690 5690 5689
5722 5720 5718 5717 5714 5711 5709 5707 5706 5704 5703 5702 5701 5699 5699 5699 5698 5697 5697 5697 5697 5697 5697 5697 5697 5695 5696 5694 5693 5692 5692 5692 5693 5695 5694 5690 5687 5686 5687 5687 5687 5685 5685
5724 5721 5718 5716 5714 5712 5711 5709 5706 5705 5703 5701 5700 5699 5697 5696 5696 5697 5696 5696 5695 5694 5694 5695 5695 5694 5694 5693 5693 5692 5692 5690 5690 5691 5691 5693 5691 5687 5683 5684 5684 5682 5681
5725 5722 5719 5717 5716 5713 5710 5709 5706 5704 5702 5701 5699 5698 5697 5697 5697 5696 5695 5695 5694 5692 5692 5692 5692 5692 5692 5691 5690 5690 5690 5690 5690 5690 5690 5688 5687 5689 5685 5680 5680 5679 5678
5726 5723 5721 5718 5714 5711 5708 5707 5704 5702 5700 5699 5699 5698 5697 5695 5694 5693 5693 5693 5692 5691 5691 5690 5690 5690 5690 5690 5689 5688 5688 5688 5687 5688 5688 5687 5686 5684 5684 5680 5677 5676 5675
5728 5724 5720 5716 5712 5709 5707 5705 5703 5701 5700 5699 5699 5698 5697 5696 5695 5694 5693 5691 5691 5690 5690 5689 5689 5688 5687 5687 5686 5686 5686 5686 5685 5685 5685 5685 5684 5684 5683 5680 5678 5675 5673
5729 5725 5721 5717 5713 5710 5707 5705 5703 5701 5700 5699 5699 5699 5698 5696 5695 5694 5693 5692 5691 5690 5689 5688 5687 5686 5684 5684 5683 5684 5683 5684 5683 5682 5681 5681 5680 5680 5679 5678 5675 5673 5671
5728 5725 5722 5718 5715 5711 5708 5706 5704 5702 5700 5700 5699 5698 5697 5695 5694 5694 5693 5691 5690 5689 5687 5686 5685 5683 5682 5682 5681 5681 5680 5680 5680 5679 5678 5677 5676 5675 5675 5674 5674 5672 5669
5728 5725 5722 5719 5716 5714 5710 5708 5705 5703 5701 5700 5699 5697 5696 5695 5693 5693 5691 5689 5688 5687 5686 5685 5684 5682 5681 5680 5679 5678 5677 5677 5676 5674 5675 5673 5674 5672 5671 5670 5670 5671 5669
5727 5725 5722 5720 5717 5714 5711 5707 5705 5703 5701 5700 5698 5696 5694 5693 5692 5690 5689 5688 5687 5686 5685 5684 5683 5682 5680 5678 5676 5676 5675 5675 5674 5674 5673 5671 5670 5669 5668 5668 5667 5666 5666
5727 5724 5722 5719 5716 5713 5711 5708 5706 5703 5701 5699 5697 5695 5693 5691 5691 5690 5689 5688 5686 5685 5685 5683 5681 5680 5679 5678 5676 5674 5673 5672 5671 5671 5670 5669 5667 5665 5665 5664 5663 5662 5661
5724 5722 5720 5717 5715 5713 5710 5708 5706 5704 5701 5699 5696 5694 5693 5692 5690 5689 5688 5687 5686 5685 5683 5682 5680 5678 5677 5676 5675 5673 5672 5671 5670 5669 5668 5667 5666 5664 5662 5660 5660 5659 5657
5722 5720 5717 5716 5714 5713 5711 5709 5706 5704 5701 5698 5695 5694 5693 5691 5690 5689 5687 5686 5685 5684 5682 5681 5679 5677 5676 5675 5673 5672 5671 5670 5668 5667 5666 5665 5664 5662 5660 5658 5657 5655 5653
5720 5719 5717 5716 5713 5711 5710 5709 5706 5704 5701 5698 5695 5693 5693 5690 5688 5687 5685 5684 5682 5681 5681 5679 5677 5675 5673 5673 5671 5670 5668 5668 5666 5665 5663 5661 5659 5657 5656 5655 5654 5652 5650
5718 5718 5717 5716 5713 5712 5710 5708 5705 5704 5701 5698 5695 5693 5691 5688 5686 5685 5684 5682 5680 5679 5678 5676 5675 5673 5671 5668 5665 5666 5666 5666 5664 5662 5660 5658 5656 5653 5650 5648 5647 5646 5646
5716 5716 5717 5715 5714 5713 5711 5707 5705 5703 5700 5698 5695 5691 5689 5686 5685 5683 5681 5679 5678 5676 5675 5674 5673 5671 5668 5664 5662 5661 5663 5663 5662 5660 5658 5656 5654 5651 5650 5646 5642 5641 5638
5714 5714 5715 5714 5714 5712 5710 5708 5705 5702 5699 5696 5693 5690 5688 5685 5683 5681 5679 5677 5677 5674 5672 5671 5670 5668 5665 5661 5659 5658 5659 5660 5658 5657 5655 5653 5652 5649 5647 5645 5643 5641 5637
5713 5713 5714 5713 5713 5710 5708 5705 5702 5700 5696 5693 5691 5689 5686 5683 5681 5678 5677 5676 5674 5672 5670 5669 5667 5665 5663 5659 5656 5654 5657 5656 5655 5653 5652 5650 5648 5643 5639 5639 5638 5636 5633
5710 5710 5710 5711 5709 5707 5705 5702 5699 5696 5693 5691 5689 5688 5685 5682 5679 5678 5676 5674 5672 5670 5668 5666 5665 5664 5662 5657 5653 5651 5653 5652 5651 5649 5647 5643 5641 5637 5634 5634 5633 5631 5629
5704 5705 5705 5704 5703 5703 5700 5697 5695 5693 5692 5689 5687 5684 5682 5680 5678 5676 5673 5671 5669 5667 5665 5664 5662 5661 5659 5654 5650 5648 5649 5648 5647 5645 5643 5641 5635 5632 5629 5627 5628 5625 5622
5697 5698 5697 5697 5697 5697 5695 5693 5690 5690 5688 5685 5682 5680 5678 5676 5674 5671 5669 5668 5666 5663 5662 5660 5659 5657 5655 5651 5647 5644 5642 5642 5641 5640 5639 5636 5630 5626 5623 5621 5619 5617 5614
5691 5691 5690 5690 5690 5690 5689 5687 5685 5684 5682 5680 5677 5676 5674 5672 5671 5668 5665 5663 5661 5660 5659 5657 5655 5654 5652 5648 5643 5640 5637 5635 5635 5635 5631 5627 5623 5620 5618 5615 5612 5610 5610
5684 5684 5683 5683 5683 5683 5682 5681 5680 5678 5677 5675 5673 5671 5670 5668 5667 5664 5662 5660 5658 5656 5654 5653 5651 5649 5647 5645 5641 5637 5633 5629 5627 5626 5623 5619 5616 5614 5612 5609 5607 5606 5605
5677 5677 5677 5676 5676 5676 5675 5674 5674 5673 5672 5671 5669 5667 5665 5664 5661 5658 5656 5655 5654 5653 5649 5648 5647 5644 5642 5639 5634 5632 5630 5627 5624 5620 5618 5615 5613 5611 5608 5606 5604 5600 5597
5670 5669 5669 5668 5670 5669 5668 5668 5668 5668 5668 5666 5664 5662 5660 5657 5655 5653 5649 5645 5645 5642 5640 5639 5638 5638 5634 5630 5627 5624 5621 5618 5615 5612 5612 5609 5607 5605 5602 5600 5596 5593 5590